KA4JMC Weather Reports


Display with metric or nautical units.
time (UTC)temp
F
wind
direction
speed
MPH
gust
MPH
rain 1hr
in
rain 24hr
in
rain mn
in
humidity
%
barometer
mb
20260505024520 64 235 0.0 4.0 0.00 0.00 0.00 975.8
20260505024014 64 246 0.0 0.0 0.00 0.00 0.00 975.8
20260505023519 64 226 0.0 0.0 0.00 0.00 0.00 975.8
20260505023015 64 234 4.0 0.0 0.00 0.00 0.00 975.8
20260505022516 64 224 4.0 4.0 0.00 0.00 0.00 975.8
20260505022013 64 227 0.0 0.0 0.00 0.00 0.00 975.8
20260505021514 64 204 2.0 4.0 0.00 0.00 0.00 974.8
20260505021014 65 220 2.0 2.0 0.00 0.00 0.00 974.8
20260505020516 65 177 0.0 6.0 0.00 0.00 0.00 974.8
20260505020016 65 203 4.0 0.0 0.00 0.00 0.00 974.8
20260505015513 65 194 4.0 4.0 0.00 0.00 0.00 974.8
20260505015013 65 235 4.0 0.0 0.00 0.00 0.00 974.8
20260505014514 65 224 4.0 3.0 0.00 0.00 0.00 973.8
20260505014014 65 181 4.0 5.0 0.00 0.00 0.00 973.8
20260505013514 66 206 2.0 2.0 0.00 0.00 0.00 973.8
20260505013014 66 183 4.0 3.0 0.00 0.00 0.00 973.8
20260505012519 66 161 5.0 9.0 0.00 0.00 0.00 973.8
20260505012013 66 169 0.0 2.0 0.00 0.00 0.00 973.8
20260505011514 66 183 5.0 8.0 0.00 0.00 0.00 974.8
20260505011014 66 179 4.0 2.0 0.00 0.00 0.00 974.8
20260505010514 67 185 0.0 11.0 0.00 0.00 0.00 974.8
20260505010016 67 196 4.0 5.0 0.00 0.00 0.00 973.8
20260505005519 67 171 3.0 3.0 0.00 0.00 0.00 973.8
20260505005013 67 232 0.0 0.0 0.00 0.00 0.00 973.8
20260505004513 67 192 3.0 0.0 0.00 0.00 0.00 972.8
20260505004014 67 209 4.0 3.0 0.00 0.00 0.00 972.8
20260505003516 68 177 3.0 3.0 0.00 0.00 0.00 972.8
20260505003015 68 190 0.0 0.0 0.00 0.00 0.00 972.8
20260505002514 68 168 0.0 0.0 0.00 0.00 0.00 972.8
20260505002025 69 191 2.0 3.0 0.00 0.00 0.00 972.8
20260505001517 69 198 2.0 5.0 0.00 0.00 0.00 972.8
20260505001019 69 238 4.0 3.0 0.00 0.00 0.00 972.8
20260505000515 69 228 4.0 5.0 0.00 0.00 0.00 972.8
20260505000042 69 239 6.0 7.0 0.00 0.00 0.00 972.8
20260504235534 69 215 4.0 8.0 0.00 0.00 0.00 972.8
20260504235019 69 214 4.0 0.0 0.00 0.00 0.00 972.8
20260504234517 69 235 0.0 4.0 0.00 0.00 0.00 972.8
20260504234014 69 225 2.0 3.0 0.00 0.00 0.00 972.8
20260504233523 69 194 0.0 0.0 0.00 0.00 0.00 972.8
20260504233014 69 232 2.0 3.0 0.00 0.00 0.00 972.8
20260504232513 69 216 2.0 5.0 0.00 0.00 0.00 972.8
20260504232014 68 275 4.0 5.0 0.00 0.00 0.00 972.8
20260504231515 68 213 4.0 3.0 0.00 0.00 0.00 973.8
20260504231014 67 208 8.0 8.0 0.00 0.00 0.00 973.8
20260504230539 67 176 0.0 6.0 0.00 0.00 0.00 973.8
20260504230016 67 185 0.0 0.0 0.00 0.00 0.00 973.8
20260504225515 67 211 0.0 0.0 0.00 0.00 0.00 973.8
20260504225014 68 205 4.0 4.0 0.00 0.00 0.00 973.8
20260504224513 68 200 4.0 4.0 0.00 0.00 0.00 973.8
20260504224013 70 202 6.0 0.0 0.00 0.00 0.00 973.8
20260504223534 72 180 5.0 8.0 0.00 0.00 0.00 973.8
20260504223026 74 350 8.0 9.0 0.00 0.00 0.00 973.8
20260504222513 75 216 4.0 6.0 0.00 0.00 0.00 973.8
20260504222014 75 216 0.0 0.0 0.00 0.00 0.00 973.8
20260504221514 76 233 4.0 4.0 0.00 0.00 0.00 973.8
20260504221014 76 222 2.0 2.0 0.00 0.00 0.00 973.8
20260504220517 76 206 4.0 3.0 0.00 0.00 0.00 973.8
20260504220014 76 197 2.0 3.0 0.00 0.00 0.00 973.8
20260504215514 76 332 7.0 8.0 0.00 0.00 0.00 973.8
20260504215015 76 235 6.0 6.0 0.00 0.00 0.00 973.8
20260504214513 77 214 6.0 6.0 0.00 0.00 0.00 973.8
20260504214015 77 230 4.0 7.0 0.00 0.00 0.00 973.8
20260504213515 78 335 4.0 2.0 0.00 0.00 0.00 973.8
20260504213021 77 224 4.0 8.0 0.00 0.00 0.00 974.8
20260504212517 77 201 5.0 8.0 0.00 0.00 0.00 974.8
20260504212017 77 224 4.0 7.0 0.00 0.00 0.00 974.8
20260504211514 77 249 5.0 6.0 0.00 0.00 0.00 974.8
20260504211013 78 207 5.0 3.0 0.00 0.00 0.00 974.8
20260504210517 79 18 8.0 5.0 0.00 0.00 0.00 974.8
20260504210014 79 223 3.0 6.0 0.00 0.00 0.00 974.8
20260504205514 79 225 6.0 11.0 0.00 0.00 0.00 974.8
20260504205035 78 230 6.0 8.0 0.00 0.00 0.00 974.8
20260504204515 79 137 4.0 5.0 0.00 0.00 0.00 973.8
20260504204016 79 253 4.0 0.0 0.00 0.00 0.00 973.8
20260504203515 79 215 2.0 0.0 0.00 0.00 0.00 973.8
20260504203022 79 327 4.0 4.0 0.00 0.00 0.00 973.8
20260504202514 80 58 6.0 4.0 0.00 0.00 0.00 973.8
20260504202019 80 172 6.0 7.0 0.00 0.00 0.00 973.8
20260504201519 80 195 3.0 5.0 0.00 0.00 0.00 974.8
20260504201019 80 220 3.0 3.0 0.00 0.00 0.00 974.8
20260504200515 80 196 4.0 9.0 0.00 0.00 0.00 974.8
20260504200036 80 210 5.0 7.0 0.00 0.00 0.00 974.8
20260504195514 80 270 7.0 5.0 0.00 0.00 0.00 974.8
20260504195014 80 233 3.0 4.0 0.00 0.00 0.00 974.8
20260504194513 80 203 4.0 8.0 0.00 0.00 0.00 974.8
20260504194024 79 224 4.0 3.0 0.00 0.00 0.00 974.8
20260504193517 80 203 6.0 6.0 0.00 0.00 0.00 974.8
20260504193014 80 334 5.0 8.0 0.00 0.00 0.00 974.8
20260504192534 79 167 3.0 3.0 0.00 0.00 0.00 974.8
20260504192017 79 321 4.0 12.0 0.00 0.00 0.00 974.8
20260504191513 80 285 6.0 8.0 0.00 0.00 0.00 974.8
20260504191014 80 186 4.0 3.0 0.00 0.00 0.00 974.8
20260504190514 80 153 7.0 4.0 0.00 0.00 0.00 974.8
20260504190023 80 189 5.0 3.0 0.00 0.00 0.00 974.8
20260504185518 80 248 6.0 4.0 0.00 0.00 0.00 974.8
20260504185035 80 180 5.0 5.0 0.00 0.00 0.00 974.8
20260504184513 80 183 6.0 7.0 0.00 0.00 0.00 974.8
20260504184013 80 279 6.0 8.0 0.00 0.00 0.00 974.8
20260504183514 80 253 3.0 5.0 0.00 0.00 0.00 974.8
20260504183036 79 230 4.0 3.0 0.00 0.00 0.00 974.8
20260504182515 79 245 6.0 2.0 0.00 0.00 0.00 974.8
20260504182017 79 284 7.0 11.0 0.00 0.00 0.00 974.8
20260504181536 80 188 8.0 8.0 0.00 0.00 0.00 974.8
20260504181042 79 227 7.0 6.0 0.00 0.00 0.00 974.8
20260504180513 79 224 0.0 4.0 0.00 0.00 0.00 974.8
20260504180015 79 220 3.0 8.0 0.00 0.00 0.00 974.8
20260504175513 79 177 4.0 10.0 0.00 0.00 0.00 974.8
20260504175013 78 219 4.0 6.0 0.00 0.00 0.00 974.8
20260504174517 79 244 8.0 8.0 0.00 0.00 0.00 974.8
20260504174014 79 231 7.0 8.0 0.00 0.00 0.00 974.8
20260504173514 78 201 5.0 4.0 0.00 0.00 0.00 974.8
20260504173015 78 255 4.0 6.0 0.00 0.00 0.00 975.8
20260504172514 78 145 6.0 4.0 0.00 0.00 0.00 975.8
20260504172014 78 229 7.0 6.0 0.00 0.00 0.00 975.8
20260504171534 78 210 5.0 5.0 0.00 0.00 0.00 975.8
20260504171023 78 236 6.0 6.0 0.00 0.00 0.00 975.8
20260504170515 78 234 6.0 6.0 0.00 0.00 0.00 975.8
20260504151013 72 209 3.0 0.0 0.00 0.00 0.00 976.8
20260504150514 71 184 4.0 5.0 0.00 0.00 0.00 976.8
20260504141014 67 222 0.0 4.0 0.00 0.00 0.00 976.8
20260504140513 67 219 4.0 6.0 0.00 0.00 0.00 976.8
20260504130513 58 210 0.0 0.0 0.00 0.00 0.00 976.8
20260504110513 47 217 0.0 0.0 0.00 0.00 0.00 976.8
20260504100513 47 242 0.0 0.0 0.00 0.00 0.00 976.8
20260504081517 48 242 0.0 0.0 0.00 0.00 0.00 976.8
20260504081014 49 242 0.0 0.0 0.00 0.00 0.00 976.8
20260504080514 49 243 0.0 0.0 0.00 0.00 0.00 976.8
20260504050517 57 189 0.0 0.0 0.00 0.00 0.00 979.8
20260504045535 57 213 0.0 4.0 0.00 0.00 0.00 978.8
20260504045015 57 206 0.0 0.0 0.00 0.00 0.00 978.8
20260504044514 57 195 3.0 3.0 0.00 0.00 0.00 978.8
20260504044013 57 222 4.0 4.0 0.00 0.00 0.00 978.8
20260504043514 57 211 2.0 0.0 0.00 0.00 0.00 978.8
20260504043014 57 191 2.0 0.0 0.00 0.00 0.00 979.8
20260504042514 57 195 4.0 4.0 0.00 0.00 0.00 979.8
20260504042039 58 234 0.0 0.0 0.00 0.00 0.00 979.8
20260504041514 58 191 0.0 0.0 0.00 0.00 0.00 979.8
20260504041014 58 209 0.0 0.0 0.00 0.00 0.00 979.8
20260504040526 58 216 2.0 2.0 0.00 0.00 0.00 979.8
20260504040014 58 218 0.0 0.0 0.00 0.00 0.00 979.8
20260504035514 58 251 0.0 3.0 0.00 0.00 0.00 979.8
20260504035017 58 195 0.0 0.0 0.00 0.00 0.00 979.8
20260504034513 58 192 0.0 0.0 0.00 0.00 0.00 979.8
20260504034014 58 189 0.0 0.0 0.00 0.00 0.00 979.8
20260504033514 58 224 0.0 0.0 0.00 0.00 0.00 979.8
20260504033019 58 183 3.0 5.0 0.00 0.00 0.00 979.8
20260504032514 58 220 0.0 0.0 0.00 0.00 0.00 979.8
20260504032014 58 192 0.0 0.0 0.00 0.00 0.00 979.8
20260504031514 59 207 0.0 0.0 0.00 0.00 0.00 979.8
20260504031015 59 209 0.0 0.0 0.00 0.00 0.00 979.8
20260504030514 59 192 0.0 0.0 0.00 0.00 0.00 979.8
20260504030021 59 192 0.0 0.0 0.00 0.00 0.00 979.8
20260504025513 59 224 0.0 0.0 0.00 0.00 0.00 979.8
20260504025020 59 196 0.0 0.0 0.00 0.00 0.00 979.8